Home   Weather   Paris   Past weeks
Flag for USA

Past Weather in Paris, Idaho, USA — Yesterday and Last 2 Weeks

Now
62 °F

Sunny.


Feels Like: 62 °F
Forecast: 64 / 34 °F
Wind: 15 mph from South

Location: Pocatello Regional Airport

Current Time: Oct 13, 2019 at 7:00:42 pm

Latest Report: Oct 13, 2019 at 5:53 pm


Visibility: 10 mi

Pressure: 29.90 "Hg

Humidity: 13%

Dew Point: 10 °F

Location of ParisLocation

Past Weather in Paris — Graph

°F

Paris Temperature Yesterday

Maximum temperature yesterday: 59 °F (at 3:53 pm)
Minimum temperature yesterday: 18 °F (at 3:53 am)
Average temperature yesterday: 36 °F

High & Low Weather Summary for the Past Weeks

 TemperatureHumidityPressure
High70 °F (Oct 8, 3:53 pm)100% (Sep 30, 4:53 am)30.57 "Hg (Sep 30, 4:53 am)
Low15 °F (Oct 11, 7:53 am)10% (Oct 13, 2:53 pm)29.52 "Hg (Oct 9, 12:53 am)
Average40 °F62%30.09 "Hg
* Reported Sep 28 5:53 pm — Oct 13 5:53 pm, Paris. Weather by CustomWeather, © 2019

Note: Actual official high and low records may vary slightly from our data, if they occured in-between our weather recording intervals... More about our weather records

Advertising

Paris Weather History for the Previous 24 Hours

Scroll right to see more
 ConditionsComfort  
Time TempWeatherWind HumidityBarometerVisibility
5:53 pm
Sun, Oct 13
62 °FSunny.15 mph13%29.90 "Hg10 mi
4:53 pm66 °FSunny.16 mph11%29.89 "Hg10 mi
3:53 pm67 °FSunny.9 mph10%29.89 "Hg10 mi
2:53 pm67 °FSunny.16 mph10%29.90 "Hg10 mi
1:53 pm64 °FSunny.5 mph14%29.93 "Hg10 mi
12:53 pm59 °FSunny.3 mph18%29.98 "Hg10 mi
11:53 am53 °FSunny.5 mph24%30.01 "Hg10 mi
10:53 am46 °FSunny.6 mph37%30.05 "Hg10 mi
9:53 am36 °FSunny.5 mph59%30.06 "Hg10 mi
8:53 am26 °FSunny.No wind81%30.09 "Hg10 mi
7:53 am21 °FClear.6 mph85%30.08 "Hg10 mi
6:53 am20 °FClear.No wind85%30.06 "Hg10 mi
5:53 am21 °FClear.5 mph85%30.03 "Hg10 mi
4:53 am21 °FClear.5 mph85%30.03 "Hg10 mi
3:53 am23 °FClear.No wind85%30.03 "Hg10 mi
2:53 am25 °FClear.No wind78%30.04 "Hg10 mi
1:53 am26 °FClear.No wind74%30.04 "Hg10 mi
12:53 am30 °FClear.5 mph66%30.04 "Hg10 mi
11:53 pm
Sat, Oct 12
31 °FClear.5 mph61%30.04 "Hg4 mi
10:53 pm32 °FClear.No wind61%30.06 "Hg6 mi
9:53 pm37 °FClear.No wind50%30.08 "Hg10 mi
8:53 pm39 °FClear.No wind46%30.09 "Hg10 mi
7:53 pm44 °FClear.5 mph35%30.09 "Hg10 mi
Weather by CustomWeather, © 2019

See weather overview